Location: Potomac
(46.8816°N, 113.5795°W)
Time: 15:49:53
(UTC+00:00)

JY1SAT - Pass Details

Date: 02 July 2022
Orbit: 564 x 586 km, 97.6° (Epoch: 18 August)

Event Time Altitude Azimuth Distance (km) Brightness Sun altitude
Exits shadow 04:16:03 - 136° (SE) 2,058 ? -6.5°
Reaches altitude 10° 04:16:26 10° 134° (SE) 1,911 ? -6.6°
Maximum altitude 04:20:12 34° 69° (ENE) 975 ? -7.0°
Drops below altitude 10° 04:23:59 10° 4° (N) 1,923 ? -7.5°
Sets 04:26:16 0° 355° (N) 2,826 ? -7.8°
